| time (UTC) | temp C | wind direction | speed KPH | gust KPH | rain 1hr cm | rain 24hr cm | rain mn cm | humidity % | barometer mb |
| 20260906060059 | 17 | 0 | 0.0 | 0.0 | 0.00 | 0.86 | 0.00 | 93 | 1017.0 |
| 20260906054600 | 17 | 0 | 0.0 | 0.0 | 0.00 | 0.86 | 0.00 | 93 | 1017.2 |
| 20260906053101 | 17 | 0 | 0.0 | 0.0 | 0.00 | 0.86 | 0.00 | 93 | 1017.5 |
| 20260906051559 | 17 | 0 | 0.0 | 0.0 | 0.00 | 0.86 | 0.00 | 93 | 1017.8 |
| 20260906050126 | 18 | 0 | 0.0 | 0.0 | 0.00 | 0.86 | 0.00 | 93 | 1017.6 |
| 20260906044602 | 18 | 0 | 0.0 | 0.0 | 0.00 | 0.86 | 0.00 | 93 | 1017.5 |
| 20260906043110 | 18 | 0 | 0.0 | 0.0 | 0.00 | 0.86 | 0.00 | 93 | 1017.6 |
| 20260906041606 | 18 | 0 | 0.0 | 0.0 | 0.00 | 0.86 | 0.00 | 93 | 1017.7 |
| 20260906040114 | 18 | 0 | 0.0 | 0.0 | 0.00 | 0.86 | 0.00 | 92 | 1017.7 |
| 20260906034603 | 18 | 0 | 0.0 | 0.0 | 0.00 | 0.86 | 0.86 | 92 | 1018.0 |
| 20260906033103 | 18 | 0 | 0.0 | 0.0 | 0.00 | 0.86 | 0.86 | 92 | 1018.1 |
| 20260906031604 | 19 | 0 | 0.0 | 0.0 | 0.00 | 0.86 | 0.86 | 91 | 1018.3 |
| 20260906030134 | 19 | 0 | 0.0 | 0.0 | 0.00 | 0.86 | 0.86 | 92 | 1018.2 |
| 20260906024603 | 19 | 0 | 0.0 | 0.0 | 0.00 | 0.86 | 0.86 | 91 | 1018.0 |
| 20260906023112 | 19 | 0 | 0.0 | 0.0 | 0.00 | 0.86 | 0.86 | 91 | 1017.8 |
| 20260906021612 | 20 | 0 | 0.0 | 0.0 | 0.00 | 0.86 | 0.86 | 91 | 1017.6 |
| 20260906020107 | 20 | 0 | 0.0 | 0.0 | 0.00 | 0.86 | 0.86 | 90 | 1017.8 |
| 20260906014623 | 20 | 0 | 0.0 | 0.0 | 0.00 | 0.86 | 0.86 | 90 | 1017.5 |
| 20260906013103 | 20 | 0 | 0.0 | 0.0 | 0.00 | 0.86 | 0.86 | 91 | 1017.5 |
| 20260906011606 | 20 | 0 | 0.0 | 0.0 | 0.00 | 0.86 | 0.86 | 90 | 1017.6 |
| 20260906004606 | 21 | 0 | 0.0 | 0.0 | 0.00 | 0.86 | 0.86 | 90 | 1017.2 |
| 20260906003109 | 21 | 0 | 0.0 | 0.0 | 0.00 | 0.86 | 0.86 | 90 | 1017.1 |
| 20260906001603 | 21 | 0 | 0.0 | 0.0 | 0.00 | 0.86 | 0.86 | 88 | 1017.1 |
| 20260906000101 | 22 | 0 | 0.0 | 0.0 | 0.00 | 0.86 | 0.86 | 88 | 1017.0 |
| 20260905234615 | 22 | 0 | 0.0 | 0.0 | 0.00 | 0.86 | 0.86 | 88 | 1016.7 |
| 20260905233104 | 23 | 0 | 0.0 | 0.0 | 0.00 | 0.86 | 0.86 | 88 | 1016.7 |
| 20260905231608 | 23 | 0 | 0.0 | 0.0 | 0.00 | 0.86 | 0.86 | 88 | 1016.7 |
| 20260905230109 | 23 | 0 | 0.0 | 0.0 | 0.00 | 0.86 | 0.86 | 86 | 1016.7 |
| 20260905224610 | 24 | 0 | 0.0 | 0.0 | 0.00 | 0.86 | 0.86 | 86 | 1016.6 |
| 20260905223107 | 24 | 309 | 0.0 | 1.6 | 0.00 | 0.86 | 0.86 | 86 | 1016.8 |
| 20260905221605 | 23 | 0 | 0.0 | 0.0 | 0.00 | 0.86 | 0.86 | 86 | 1016.7 |
| 20260905220107 | 24 | 0 | 0.0 | 0.0 | 0.00 | 0.86 | 0.86 | 85 | 1016.7 |
| 20260905214610 | 24 | 0 | 0.0 | 1.6 | 0.00 | 0.86 | 0.86 | 84 | 1016.7 |
| 20260905213109 | 23 | 0 | 0.0 | 1.6 | 0.00 | 0.86 | 0.86 | 86 | 1017.2 |
| 20260905211604 | 23 | 0 | 0.0 | 1.6 | 0.00 | 0.86 | 0.86 | 87 | 1017.4 |
| 20260905210106 | 23 | 0 | 0.0 | 3.2 | 0.00 | 0.86 | 0.86 | 89 | 1017.4 |
| 20260905204604 | 22 | 0 | 0.0 | 1.6 | 0.00 | 0.86 | 0.86 | 86 | 1017.6 |
| 20260905203108 | 22 | 0 | 0.0 | 4.8 | 0.00 | 0.86 | 0.86 | 88 | 1017.3 |
| 20260905201607 | 22 | 0 | 0.0 | 0.0 | 0.00 | 0.86 | 0.86 | 91 | 1017.8 |
| 20260905194602 | 21 | 0 | 0.0 | 1.6 | 0.00 | 0.86 | 0.86 | 93 | 1017.9 |
| 20260905193057 | 21 | 313 | 0.0 | 4.8 | 0.00 | 0.86 | 0.86 | 93 | 1018.1 |
| 20260905191615 | 20 | 0 | 0.0 | 4.8 | 0.00 | 0.86 | 0.86 | 92 | 1018.2 |
| 20260905190105 | 20 | 0 | 0.0 | 1.6 | 0.08 | 0.86 | 0.86 | 92 | 1018.9 |
| 20260905184611 | 20 | 287 | 0.0 | 3.2 | 0.81 | 0.86 | 0.86 | 90 | 1018.6 |
| 20260905183102 | 20 | 284 | 0.0 | 4.8 | 0.86 | 0.86 | 0.86 | 89 | 1018.8 |
| 20260905181604 | 20 | 0 | 0.0 | 8.0 | 0.86 | 0.86 | 0.86 | 87 | 1018.7 |
| 20260905174619 | 26 | 331 | 6.4 | 19.3 | 0.05 | 0.05 | 0.05 | 68 | 1019.7 |
| 20260905173113 | 29 | 0 | 0.0 | 0.0 | 0.00 | 0.00 | 0.00 | 64 | 1018.5 |
| 20260905171556 | 31 | 0 | 0.0 | 0.0 | 0.00 | 0.00 | 0.00 | 62 | 1018.4 |
| 20260905170101 | 31 | 0 | 0.0 | 0.0 | 0.00 | 0.00 | 0.00 | 56 | 1018.5 |
| 20260905164602 | 31 | 0 | 0.0 | 0.0 | 0.00 | 0.00 | 0.00 | 57 | 1018.7 |
| 20260905163105 | 31 | 0 | 0.0 | 0.0 | 0.00 | 0.00 | 0.00 | 57 | 1019.1 |
| 20260905161604 | 31 | 0 | 0.0 | 0.0 | 0.00 | 0.00 | 0.00 | 56 | 1019.2 |
| 20260905160100 | 31 | 0 | 0.0 | 0.0 | 0.00 | 0.00 | 0.00 | 56 | 1019.2 |
| 20260905154604 | 30 | 0 | 0.0 | 0.0 | 0.00 | 0.00 | 0.00 | 58 | 1019.2 |
| 20260905153113 | 30 | 0 | 0.0 | 0.0 | 0.00 | 0.00 | 0.00 | 60 | 1019.3 |
| 20260905151604 | 30 | 0 | 0.0 | 0.0 | 0.00 | 0.00 | 0.00 | 61 | 1019.3 |
| 20260905150104 | 30 | 0 | 0.0 | 0.0 | 0.00 | 0.00 | 0.00 | 63 | 1019.4 |
| 20260905144600 | 29 | 0 | 0.0 | 1.6 | 0.00 | 0.00 | 0.00 | 62 | 1019.2 |
| 20260905143059 | 29 | 0 | 0.0 | 0.0 | 0.00 | 0.00 | 0.00 | 68 | 1019.3 |
| 20260905141614 | 28 | 0 | 0.0 | 0.0 | 0.00 | 0.00 | 0.00 | 73 | 1019.4 |
| 20260905140107 | 26 | 0 | 0.0 | 0.0 | 0.00 | 0.00 | 0.00 | 78 | 1019.5 |
| 20260905134615 | 25 | 0 | 0.0 | 0.0 | 0.00 | 0.00 | 0.00 | 82 | 1019.5 |
| 20260905133102 | 23 | 0 | 0.0 | 0.0 | 0.00 | 0.00 | 0.00 | 87 | 1019.7 |
| 20260905131608 | 21 | 0 | 0.0 | 0.0 | 0.00 | 0.00 | 0.00 | 91 | 1019.9 |
| 20260905130106 | 19 | 0 | 0.0 | 0.0 | 0.00 | 0.00 | 0.00 | 94 | 1019.8 |
| 20260905124602 | 18 | 0 | 0.0 | 0.0 | 0.00 | 0.00 | 0.00 | 94 | 1019.7 |
| 20260905123100 | 17 | 0 | 0.0 | 0.0 | 0.00 | 0.00 | 0.00 | 94 | 1019.6 |
| 20260905121603 | 17 | 0 | 0.0 | 0.0 | 0.00 | 0.00 | 0.00 | 94 | 1019.6 |
| 20260905120101 | 17 | 0 | 0.0 | 0.0 | 0.00 | 0.00 | 0.00 | 93 | 1019.4 |
| 20260905114627 | 16 | 0 | 0.0 | 0.0 | 0.00 | 0.00 | 0.00 | 93 | 1019.5 |
| 20260905113103 | 16 | 0 | 0.0 | 0.0 | 0.00 | 0.00 | 0.00 | 92 | 1019.3 |
| 20260905111602 | 16 | 0 | 0.0 | 0.0 | 0.00 | 0.00 | 0.00 | 92 | 1018.9 |
| 20260905110100 | 16 | 0 | 0.0 | 0.0 | 0.00 | 0.00 | 0.00 | 92 | 1018.8 |
| 20260905104605 | 16 | 0 | 0.0 | 0.0 | 0.00 | 0.00 | 0.00 | 92 | 1018.5 |
| 20260905103102 | 17 | 0 | 0.0 | 0.0 | 0.00 | 0.00 | 0.00 | 91 | 1018.5 |
| 20260905101600 | 17 | 0 | 0.0 | 0.0 | 0.00 | 0.00 | 0.00 | 91 | 1018.4 |
| 20260905100115 | 17 | 0 | 0.0 | 0.0 | 0.00 | 0.00 | 0.00 | 91 | 1018.4 |
| 20260905094622 | 17 | 0 | 0.0 | 0.0 | 0.00 | 0.00 | 0.00 | 91 | 1018.4 |
| 20260905093101 | 17 | 0 | 0.0 | 0.0 | 0.00 | 0.00 | 0.00 | 91 | 1018.5 |
| 20260905091615 | 17 | 0 | 0.0 | 0.0 | 0.00 | 0.00 | 0.00 | 91 | 1018.4 |
| 20260905090059 | 17 | 0 | 0.0 | 0.0 | 0.00 | 0.00 | 0.00 | 91 | 1018.4 |
| 20260905084559 | 17 | 0 | 0.0 | 0.0 | 0.00 | 0.00 | 0.00 | 91 | 1018.7 |
| 20260905083055 | 18 | 0 | 0.0 | 0.0 | 0.00 | 0.00 | 0.00 | 91 | 1018.8 |
| 20260905081603 | 18 | 0 | 0.0 | 0.0 | 0.00 | 0.00 | 0.00 | 91 | 1018.9 |
| 20260905080100 | 18 | 0 | 0.0 | 0.0 | 0.00 | 0.00 | 0.00 | 90 | 1018.9 |
| 20260905074602 | 18 | 0 | 0.0 | 0.0 | 0.00 | 0.00 | 0.00 | 91 | 1019.1 |
| 20260905073109 | 18 | 0 | 0.0 | 0.0 | 0.00 | 0.00 | 0.00 | 91 | 1019.2 |
| 20260905071601 | 18 | 0 | 0.0 | 0.0 | 0.00 | 0.00 | 0.00 | 91 | 1019.4 |
| 20260905070101 | 18 | 0 | 0.0 | 0.0 | 0.00 | 0.00 | 0.00 | 91 | 1019.4 |
| 20260905064614 | 18 | 0 | 0.0 | 0.0 | 0.00 | 0.00 | 0.00 | 91 | 1019.5 |
| 20260905063103 | 18 | 0 | 0.0 | 0.0 | 0.00 | 0.00 | 0.00 | 91 | 1019.7 |
| 20260905061619 | 19 | 0 | 0.0 | 0.0 | 0.00 | 0.00 | 0.00 | 90 | 1019.7 |